Location: Home
(42.5358°N, 72.7383°W)
Time: 10:15:17
(UTC-04:00)

FENGYUN 1C DEB - Pass Details

Date: 12 July 2022
Orbit: 665 x 843 km, 99.1° (Epoch: 16 August)

Event Time Altitude Azimuth Distance (km) Brightness Sun altitude
Rises 21:02:54 0° 212° (SSW) 3,247 ? -6.1°
Reaches altitude 10° 21:06:09 10° 234° (SW) 2,360 ? -6.6°
Maximum altitude 21:09:12 16° 270° (W) 2,030 ? -7.0°
Drops below altitude 10° 21:12:19 10° 306° (NW) 2,425 ? -7.5°
Sets 21:15:45 0° 328° (NNW) 3,387 ? -8.0°
